Wind_Speed
77 83 81 75 80 81 80 80 81 82 80 81 82 82 79 75 75 74 70 73 72 65 68 64 60 69 64 63 60 61 62 64 66 59 61 61 61 61 65 68 69 69 73 80 79 79 84
88 86 84 85 81 79 82 84 82 83 89 86 88 83 83 78 77 75 74 69 69 67 64 68 65 72 70 68 60 68 70 64 63 61 61 66 66 67 66 68 71 73 74 80 81 75 78
92 96 94 95 89 88 85 85 84 89 90 87 86 87 88 83 79 78 73 72 71 55 61 67 69 62 72 73 71 66 68 73 63 65 68 67 63 67 67 71 72 76 79 78 80 73 74
96 99 98 96 97 94 94 92 93 93 85 89 90 91 91 89 83 79 77 72 61 56 55 64 65 62 65 70 74 68 68 66 70 69 66 65 67 68 69 74 80 81 82 79 72 71 69
99 99 97 102 102 102 100 103 101 89 90 97 97 97 93 88 82 83 79 74 64 56 53 60 61 63 68 70 70 70 68 73 75 74 68 68 71 72 77 83 82 84 82 78 70 69 58
100 101 98 101 104 106 106 106 97 102 100 99 101 101 95 91 89 87 83 76 60 51 53 54 55 59 61 64 63 69 70 69 71 76 72 78 74 74 81 80 79 85 83 72 81 61 44
103 105 108 108 108 107 108 105 102 101 111 111 108 102 102 100 98 94 83 70 57 51 52 54 57 61 64 64 63 63 65 68 69 70 72 75 78 81 77 78 82 81 78 83 58 53 32
111 110 112 108 111 110 105 106 104 107 110 112 107 105 106 106 98 87 77 67 57 52 55 59 60 63 62 63 68 70 64 70 74 76 74 76 78 80 77 75 74 78 81 72 48 40 28
110 109 112 113 117 111 108 113 111 110 110 109 110 107 109 99 95 84 76 65 60 59 53 69 65 65 66 69 71 73 72 76 77 75 74 73 75 79 75 72 76 76 72 55 45 30 27
118 113 116 112 112 113 111 116 118 114 113 112 113 114 112 101 94 82 73 64 63 63 58 66 69 67 73 76 75 75 74 74 74 76 75 75 78 79 76 78 78 67 69 48 40 28 26
122 123 118 116 114 118 119 123 119 122 120 119 117 116 108 99 87 77 73 63 63 66 62 69 69 72 75 80 78 74 76 79 80 78 79 81 81 79 77 76 73 64 54 36 35 29 26
119 122 119 119 118 122 124 125 124 127 125 117 116 105 99 91 81 73 68 62 62 65 67 75 76 78 78 79 80 81 82 82 81 81 81 83 78 77 76 72 65 47 43 35 35 33 30
124 123 125 124 123 124 124 126 131 128 116 110 104 100 92 82 72 70 67 63 59 61 71 77 80 82 86 86 84 85 85 85 85 82 81 81 80 76 73 70 57 39 39 36 35 31 33
128 126 126 125 126 127 128 129 122 113 108 102 98 90 85 76 71 69 68 65 59 62 73 77 81 84 84 90 84 85 87 89 88 85 83 81 79 71 68 52 43 37 39 36 34 34 41
124 125 128 130 129 128 131 121 119 107 99 98 93 85 81 76 74 71 70 64 64 67 68 75 79 81 86 92 88 87 90 91 88 87 84 82 81 65 54 41 40 38 38 37 37 39 45
130 129 132 128 126 120 113 107 105 100 97 90 83 80 76 77 76 75 71 68 70 72 74 71 73 72 71 80 88 91 92 90 91 88 78 72 63 51 42 41 39 39 44 40 39 44 47
119 119 117 114 109 105 102 99 97 94 86 80 77 79 78 77 77 73 69 68 70 72 73 70 72 72 68 71 78 80 81 81 83 80 72 63 52 43 41 42 39 43 45 44 40 42 55
116 107 106 102 100 97 96 93 90 84 78 78 78 81 79 74 69 67 68 68 68 67 69 65 66 69 67 65 66 66 68 70 67 63 58 53 47 43 46 44 43 52 50 49 47 47 55
99 98 98 95 94 92 88 86 82 80 76 77 77 79 72 66 67 65 68 68 65 64 67 60 62 65 61 60 61 61 57 60 57 62 58 53 49 47 49 47 47 58 56 55 52 55 57
91 91 90 89 86 83 82 80 80 78 76 72 72 75 70 65 64 63 64 63 62 62 62 57 58 61 59 58 55 52 54 53 53 54 56 56 53 50 50 49 49 58 61 62 56 58 62
85 85 83 81 79 78 79 79 78 73 70 69 70 71 67 63 62 57 54 54 54 53 54 51 56 57 54 52 55 52 49 51 51 52 55 57 58 57 54 55 54 62 66 68 62 61 65
78 76 76 76 76 76 77 75 72 67 68 67 68 64 62 59 56 51 48 45 44 44 45 45 49 48 47 51 53 50 48 48 51 52 55 59 64 64 60 62 57 58 71 73 71 64 68
71 72 73 74 74 73 70 69 67 65 65 63 60 58 56 49 45 42 38 37 38 39 40 39 42 42 44 49 49 47 46 49 50 52 54 59 63 64 64 64 62 57 71 76 74 71 67
70 71 71 69 69 68 66 64 63 61 58 57 55 52 47 41 39 38 35 33 33 36 37 35 37 38 42 42 45 44 45 48 50 52 53 58 62 63 65 64 64 62 68 74 77 76 71
68 67 66 67 66 64 62 60 57 54 54 52 46 44 41 36 36 33 32 31 31 32 32 31 35 36 36 40 42 41 44 46 49 53 54 56 57 59 64 65 62 67 68 73 75 76 78
64 64 63 63 61 59 56 51 51 50 48 44 39 37 37 34 31 29 30 31 30 30 28 29 33 34 35 44 46 41 44 48 51 52 53 54 57 57 61 65 63 70 67 72 73 72 73
61 60 60 58 55 53 47 45 47 44 41 38 33 32 34 33 25 26 26 30 29 29 27 29 31 32 36 36 37 40 45 49 52 50 50 50 53 57 62 65 64 70 68 72 75 77 73
59 58 56 52 49 46 42 43 41 37 35 32 30 30 32 29 20 24 26 29 27 26 27 28 30 30 35 38 38 40 45 48 50 48 48 50 52 58 62 65 65 71 68 70 73 80 78
55 54 49 45 43 40 40 39 35 31 29 28 26 28 26 23 16 25 23 24 24 25 27 27 27 28 28 30 35 40 43 46 48 49 50 52 53 56 61 65 66 66 67 69 77 77 82
Wind_Direction
290 292 293 293 288 291 293 293 292 291 291 291 292 292 290 287 287 285 286 288 296 287 289 271 268 276 265 264 266 266 271 270 271 271 266 272 272 274 277 282 284 288 290 290 294 297 293
289 290 292 292 288 289 288 291 290 289 289 288 290 291 290 288 285 284 284 291 289 283 283 272 261 265 267 263 266 265 265 267 271 269 271 276 276 276 273 277 286 291 291 292 298 293 289
287 291 291 290 289 289 288 289 289 293 290 288 295 291 294 289 288 287 290 295 293 286 277 268 255 256 262 264 266 263 268 262 266 270 273 278 279 276 281 285 286 285 289 294 294 289 282
287 289 289 287 288 288 290 291 293 295 296 296 297 296 295 292 294 298 299 300 298 295 268 262 251 249 255 260 260 265 264 262 263 273 272 271 280 276 278 283 285 289 291 294 293 293 281
282 285 285 288 287 287 289 292 294 295 293 295 297 298 297 294 300 302 301 302 298 287 264 257 247 250 251 254 259 261 265 265 265 268 269 272 274 273 279 283 286 286 291 294 300 288 277
282 285 287 289 289 287 289 293 296 296 295 297 298 300 300 303 303 306 305 304 293 276 259 254 251 249 254 256 259 264 257 261 266 267 271 269 268 277 280 283 287 287 293 296 301 280 276
290 290 288 289 289 290 291 294 296 292 294 298 299 300 305 306 306 308 305 298 286 271 253 249 254 254 249 253 258 264 255 259 261 265 267 267 271 276 280 283 288 289 294 300 292 278 268
289 289 291 291 293 294 294 297 296 296 296 298 300 302 305 307 307 306 300 290 278 266 254 250 254 258 255 259 262 260 262 259 262 266 268 269 273 274 277 283 285 287 294 296 285 275 250
287 287 288 290 293 293 293 295 296 297 297 300 303 303 306 305 304 301 296 285 275 262 251 253 246 250 248 250 250 257 258 260 261 265 265 267 267 273 277 279 281 293 295 284 276 266 229
285 287 288 289 290 290 291 292 294 298 299 300 301 303 304 304 303 298 292 283 273 264 253 251 249 244 246 249 252 252 254 259 261 263 267 265 267 271 276 276 283 291 286 272 266 244 217
285 288 287 289 288 288 290 295 297 299 300 299 301 303 301 299 297 292 286 279 269 262 254 249 249 248 249 249 249 252 254 257 259 262 263 266 269 272 275 277 285 288 273 257 249 227 207
284 286 286 287 287 287 290 294 296 297 300 300 298 299 297 296 293 288 282 277 268 262 251 248 246 247 249 252 254 256 256 255 256 258 261 265 267 270 275 280 284 272 255 243 235 221 195
283 283 284 286 287 289 291 293 295 296 296 296 296 297 295 295 290 285 282 278 271 262 255 248 247 246 250 250 250 250 252 255 257 258 262 266 268 272 275 282 276 250 246 235 230 207 206
280 282 283 286 288 289 291 293 294 294 295 295 296 297 293 293 289 285 282 278 274 263 256 252 247 249 247 251 250 250 252 253 255 259 263 267 269 272 273 270 252 237 241 233 223 212 206
281 283 286 287 287 290 289 291 292 293 293 294 294 293 290 289 285 283 280 278 271 266 259 256 253 249 248 251 253 251 250 252 257 260 263 268 272 270 263 248 237 236 229 232 218 213 211
282 283 283 286 286 289 289 290 291 291 293 293 292 290 289 286 284 282 280 275 269 264 261 260 258 255 252 251 253 253 254 255 259 261 264 266 266 261 248 231 228 224 217 220 214 209 205
282 282 284 284 286 286 288 289 290 291 291 291 290 287 286 283 281 280 279 274 269 266 264 262 260 260 254 250 250 251 253 254 256 257 256 260 259 245 231 224 220 215 214 211 216 205 201
280 281 282 284 285 287 289 289 288 290 290 290 289 287 285 282 284 283 279 274 270 267 266 262 261 261 258 253 253 253 250 250 251 253 250 246 237 228 225 219 217 209 206 206 215 201 198
280 281 283 284 285 287 287 287 288 289 290 290 289 286 284 287 283 279 276 272 269 266 262 259 257 258 256 255 251 249 247 246 245 243 240 234 230 226 224 217 218 207 205 207 214 197 198
278 280 282 283 285 285 286 286 288 290 290 290 288 287 288 286 283 279 275 272 268 264 262 257 253 253 251 249 250 246 243 242 238 238 235 229 226 224 220 215 213 206 206 205 210 202 204
276 278 281 282 284 285 287 288 290 291 292 291 290 288 289 287 283 280 276 271 268 264 260 256 252 250 248 246 246 244 238 234 234 232 228 226 226 222 215 209 210 207 205 205 207 205 201
276 278 279 281 283 285 286 288 291 293 293 292 289 289 289 287 286 282 277 271 264 261 257 254 250 248 244 242 240 237 236 230 228 229 222 219 217 219 214 206 210 214 206 205 205 209 206
277 278 280 282 284 285 288 290 293 293 293 290 289 288 286 286 283 279 274 267 259 252 248 244 241 240 238 236 236 233 226 224 223 223 222 221 218 217 216 208 207 215 212 207 206 209 211
276 278 281 282 283 286 288 291 291 292 289 288 289 288 287 285 280 276 273 268 259 250 244 238 234 231 227 227 231 228 222 219 218 218 218 218 220 216 216 211 208 216 216 208 209 210 212
275 277 279 281 283 286 289 291 291 289 290 289 288 286 284 280 274 272 268 260 253 246 241 232 230 224 221 218 221 219 215 217 214 216 216 216 218 217 215 214 215 216 217 213 207 212 215
274 276 278 280 283 286 289 290 288 290 289 288 286 283 281 275 272 266 260 255 246 242 234 228 227 221 216 214 211 207 209 211 212 215 215 215 215 214 215 215 215 218 217 219 208 211 212
272 274 276 279 283 286 289 287 288 289 287 285 283 280 276 271 266 259 250 247 245 239 229 226 223 218 213 213 211 207 203 208 210 211 213 216 216 215 215 216 215 221 218 219 216 213 212
271 272 275 279 282 285 286 287 286 287 285 282 279 273 269 268 258 251 242 242 241 237 229 222 222 216 210 206 205 202 206 204 208 209 209 213 214 215 215 214 215 221 219 220 220 217 216
267 269 273 276 280 282 284 285 285 282 282 279 276 271 268 266 249 245 239 236 235 229 225 220 217 215 211 210 204 201 201 205 207 208 210 213 216 217 216 215 219 223 220 220 222 220 217
Height
10686 10685 10683 10680 10677 10674 10672 10669 10665 10662 10657 10653 10648 10644 10641 10637 10634 10631 10627 10623 10620 10617 10616 10614 10612 10615 10617 10617 10622 10624 10617 10618 10621 10620 10616 10617 10618 10618 10617 10615 10612 10617 10615 10612 10609 10599 10591
10670 10666 10663 10661 10659 10656 10654 10651 10647 10642 10638 10633 10629 10624 10620 10615 10612 10608 10604 10599 10597 10597 10596 10594 10593 10599 10600 10601 10609 10607 10603 10604 10606 10604 10604 10604 10603 10603 10603 10601 10600 10600 10599 10596 10593 10583 10574
10654 10650 10647 10643 10640 10637 10633 10631 10628 10623 10617 10612 10607 10602 10598 10593 10592 10586 10579 10574 10571 10573 10570 10569 10573 10578 10582 10583 10586 10587 10590 10588 10592 10589 10588 10590 10590 10589 10588 10585 10583 10582 10584 10581 10571 10565 10557
10634 10632 10627 10622 10619 10615 10612 10608 10605 10602 10594 10589 10583 10578 10573 10569 10566 10560 10555 10547 10543 10546 10545 10547 10551 10557 10561 10567 10567 10573 10571 10571 10575 10575 10573 10575 10576 10574 10574 10572 10570 10568 10568 10566 10555 10546 10539
10617 10613 10607 10603 10598 10593 10589 10586 10582 10575 10569 10564 10559 10552 10547 10545 10539 10534 10528 10519 10520 10522 10524 10526 10532 10537 10541 10547 10549 10551 10556 10557 10557 10559 10558 10561 10562 10562 10560 10556 10556 10552 10553 10549 10540 10528 10530
10592 10588 10583 10578 10574 10568 10564 10560 10555 10551 10544 10539 10532 10526 10519 10517 10514 10510 10500 10495 10498 10502 10504 10508 10514 10520 10524 10528 10529 10534 10537 10540 10541 10541 10543 10544 10547 10546 10541 10543 10544 10538 10537 10530 10524 10512 10523
10561 10559 10556 10552 10548 10543 10538 10534 10528 10524 10518 10513 10506 10500 10494 10489 10486 10483 10475 10473 10477 10484 10486 10492 10497 10503 10503 10510 10513 10512 10519 10521 10522 10524 10526 10530 10530 10527 10529 10527 10529 10526 10520 10515 10510 10504 10514
10536 10532 10527 10525 10521 10517 10511 10507 10503 10499 10493 10488 10480 10475 10470 10465 10461 10460 10455 10451 10456 10467 10469 10472 10478 10484 10485 10495 10495 10494 10504 10503 10505 10509 10509 10512 10512 10514 10514 10515 10514 10514 10509 10504 10499 10500 10506
10511 10507 10503 10499 10496 10493 10488 10484 10479 10474 10468 10463 10457 10452 10447 10444 10440 10439 10433 10433 10436 10444 10457 10446 10461 10467 10470 10476 10479 10479 10484 10486 10487 10491 10493 10496 10497 10497 10501 10500 10501 10503 10498 10495 10489 10495 10501
10488 10485 10481 10478 10474 10470 10465 10460 10454 10450 10444 10438 10434 10429 10421 10419 10416 10415 10412 10415 10416 10423 10436 10430 10436 10446 10450 10452 10456 10463 10465 10468 10470 10472 10476 10479 10481 10483 10485 10486 10490 10491 10484 10485 10484 10490 10497
10468 10464 10459 10456 10451 10445 10441 10435 10428 10422 10420 10415 10408 10404 10399 10396 10395 10394 10392 10395 10398 10401 10415 10411 10415 10421 10427 10430 10434 10442 10447 10449 10451 10456 10459 10460 10465 10469 10470 10472 10476 10476 10472 10476 10476 10483 10492
10443 10440 10436 10431 10428 10422 10418 10414 10408 10403 10398 10392 10389 10383 10374 10378 10373 10373 10372 10375 10377 10383 10392 10388 10392 10400 10407 10411 10416 10421 10425 10429 10434 10438 10441 10442 10450 10452 10457 10458 10460 10461 10461 10465 10468 10476 10488
10420 10417 10412 10407 10403 10399 10394 10390 10384 10378 10375 10372 10368 10361 10350 10351 10356 10349 10349 10352 10358 10364 10360 10365 10372 10380 10382 10387 10392 10396 10403 10408 10413 10419 10423 10426 10431 10438 10443 10444 10444 10448 10451 10456 10462 10474 10485
10398 10396 10390 10385 10380 10376 10371 10365 10359 10354 10351 10348 10342 10337 10325 10330 10331 10329 10328 10333 10340 10340 10333 10340 10349 10354 10361 10359 10373 10379 10385 10388 10395 10402 10405 10409 10414 10424 10425 10430 10430 10436 10441 10448 10455 10465 10475
10372 10370 10365 10361 10358 10351 10346 10340 10335 10330 10327 10325 10320 10316 10306 10309 10308 10309 10310 10317 10317 10313 10316 10313 10318 10329 10341 10341 10356 10358 10362 10368 10378 10384 10388 10394 10397 10405 10411 10415 10420 10426 10434 10440 10447 10457 10464
10350 10346 10343 10339 10333 10328 10322 10316 10311 10308 10306 10303 10299 10290 10290 10286 10286 10286 10290 10294 10288 10288 10289 10294 10298 10305 10321 10325 10328 10334 10340 10355 10361 10366 10371 10378 10380 10390 10396 10402 10409 10417 10425 10432 10439 10449 10458
10327 10323 10318 10314 10309 10305 10301 10294 10288 10285 10285 10281 10277 10268 10268 10267 10263 10266 10268 10268 10265 10264 10267 10276 10279 10282 10296 10303 10306 10315 10327 10335 10339 10347 10354 10362 10366 10376 10383 10389 10399 10407 10417 10424 10432 10441 10449
10304 10300 10295 10291 10287 10282 10278 10272 10267 10265 10266 10260 10255 10243 10243 10242 10245 10245 10244 10243 10243 10246 10245 10255 10260 10262 10273 10283 10289 10299 10309 10315 10321 10330 10336 10346 10353 10363 10368 10379 10388 10398 10407 10415 10423 10433 10442
10279 10276 10272 10269 10264 10261 10256 10251 10247 10246 10247 10240 10233 10219 10221 10226 10221 10223 10218 10219 10222 10224 10220 10235 10240 10241 10252 10261 10269 10279 10289 10296 10304 10309 10317 10330 10340 10349 10357 10369 10377 10386 10396 10405 10414 10425 10434
10255 10255 10252 10248 10244 10240 10236 10232 10230 10227 10224 10219 10211 10201 10198 10201 10200 10199 10196 10197 10198 10200 10202 10213 10220 10221 10230 10241 10248 10260 10271 10280 10289 10295 10305 10315 10326 10336 10346 10357 10366 10376 10385 10395 10404 10417 10425
10236 10235 10232 10228 10224 10221 10217 10213 10210 10207 10203 10199 10192 10184 10182 10179 10177 10178 10178 10176 10177 10180 10184 10194 10198 10204 10214 10225 10231 10242 10252 10265 10273 10281 10289 10299 10312 10321 10331 10343 10354 10361 10373 10384 10395 10405 10417
10217 10216 10213 10210 10207 10204 10200 10195 10191 10190 10184 10178 10171 10168 10163 10160 10159 10160 10159 10159 10160 10164 10168 10174 10179 10189 10200 10208 10215 10226 10237 10248 10257 10265 10274 10282 10292 10304 10315 10329 10340 10350 10360 10370 10382 10394 10407
10198 10197 10195 10192 10190 10186 10184 10179 10175 10172 10166 10159 10154 10152 10148 10148 10146 10143 10143 10143 10144 10147 10152 10159 10164 10174 10184 10189 10201 10211 10223 10231 10243 10251 10261 10272 10280 10291 10302 10315 10328 10335 10344 10359 10373 10383 10395
10181 10180 10178 10176 10173 10171 10168 10166 10161 10156 10149 10144 10141 10136 10133 10133 10131 10129 10130 10132 10132 10134 10140 10148 10154 10161 10168 10177 10186 10198 10210 10219 10229 10238 10246 10257 10267 10279 10291 10302 10316 10321 10332 10349 10360 10374 10384
10164 10163 10162 10160 10158 10156 10154 10150 10145 10140 10134 10130 10128 10123 10120 10121 10119 10120 10121 10122 10123 10125 10131 10139 10143 10151 10159 10166 10174 10186 10197 10208 10217 10225 10235 10244 10258 10271 10281 10292 10303 10310 10322 10332 10348 10360 10372
10148 10148 10147 10145 10145 10143 10140 10136 10130 10126 10121 10118 10116 10112 10109 10109 10111 10112 10111 10111 10114 10117 10122 10128 10133 10142 10150 10153 10161 10175 10185 10195 10206 10214 10226 10236 10247 10258 10270 10279 10289 10298 10311 10324 10340 10349 10360
10132 10133 10132 10132 10132 10129 10127 10123 10119 10114 10110 10107 10106 10103 10100 10099 10104 10103 10104 10102 10106 10110 10116 10119 10125 10133 10140 10149 10158 10167 10175 10185 10194 10205 10218 10229 10240 10249 10255 10267 10281 10286 10299 10312 10325 10337 10351
10117 10118 10118 10120 10118 10116 10114 10111 10108 10104 10100 10099 10098 10095 10092 10092 10097 10096 10097 10097 10100 10104 10108 10114 10120 10126 10134 10141 10151 10159 10168 10178 10187 10200 10211 10218 10227 10233 10242 10255 10264 10272 10289 10300 10311 10324 10337
10102 10103 10107 10107 10106 10105 10103 10100 10097 10095 10092 10090 10090 10086 10086 10087 10091 10088 10090 10093 10096 10098 10102 10108 10115 10121 10131 10140 10147 10154 10163 10171 10181 10191 10200 10207 10215 10223 10233 10247 10255 10265 10278 10288 10296 10307 10319